Location: *
(42.5628°N, 2.3633°E)
Time: 08:24:35
(UTC+00:00)

CZ-2C R/B - Pass Details

Date: 30 March 2020
Orbit: 705 x 907 km, 98.1° (Epoch: 03 June)

Event Time Altitude Azimuth Distance (km) Brightness Sun altitude
Exits shadow 19:19:34 - 162° (SSE) 3,294 5.9 -12.5°
Rises 19:19:37 0° 162° (SSE) 3,270 5.9 -12.5°
Reaches altitude 10° 19:21:59 10° 161° (SSE) 2,315 5.1 -12.9°
Maximum altitude 19:27:03 79° 75° (ENE) 766 2.9 -13.8°
Drops below altitude 10° 19:31:56 10° 350° (N) 2,226 5.8 -14.6°
Sets 19:34:10 0° 349° (N) 3,134 6.6 -15.0°
